STARLINK-31513, 59529

Orbit data source: Space-Track

STARLINK-31513, 59529 is a payload satellite owned by SpaceX/Seattle (US) in LEO that was launched on Wed, 17 Apr 2024 UTC via an FALCON 9 launch vehicle from the Air Force Eastern Test Range (AFETR). Payload-class satellites include a variety of spacecraft equipped with specific instruments for various scientific and technological missions. These include communications satellites like Starlink; space stations such as the ISS; scientific satellites like the Hubble; Earth observation satellites from companies like Planet Labs, Umbra, and HawkEye 360; GPS; miniature CubeSats for education and research; and military/defense satellites.

Loading next visibility...
Identifier
59529, 2024-073U
Orbit
LEO
Country
Flag of USUS
Related business
Manufacturer
SpaceX/Seattle
Mission
Operational Commercial Communications
Bus & Motor
STARLINK V2M, Unknown motor
Mass
730 kg wet, ~700 kg dry
Launch date (UTC)
2024-04-17 (2 years ago)
Launch vehicle
FALCON 9
Launch site
Air Force Eastern Test Range (AFETR)
Object type
Payload
Rocket body
Debris
Shape & HBR
Box + 2 Pan, 17.7 m
Radar Cross Section
33.884 m², Large (>1 m²)

Expand to show TLE details & history
Last TLE update: 2 days ago

TLE from 2 days ago
0 STARLINK-31513
1 59529U 24073U   26171.15665752  .00003105  00000-0  12225-3 0  9994
2 59529  43.0017  96.0964 0000835 269.5554  90.5202 15.27593537121888
Epoch: 2026-06-20T03:45Z
TLE epoch observation values (Epoch: 2026-06-20T03:45:35.209Z)
Latitude
-0.00003°
Longitude
131.32434°
Altitude
482.789 km
Speed
7.626 km/s
True Right ascension
06h 24m 23s
True Declination
0° 00' 00"
Sunlit
Object was in daylight at epoch
Visualization orbit readout
Latitude
Unknown
Longitude
Unknown
Altitude
Unknown
Speed
Unknown
Apparent Right ascension
Unknown
Apparent Declination
Unknown
Sunlit
N/A
Visualization observer readout
Local Sidereal Time
14:17:55
Azimuth
Unknown
Elevation
Unknown
Doppler factor
Unknown
Orbital elements
Apogee altitude
485.527 km
Perigee altitude
484.38 km
Semi-major axis
6,863.09 km
Eccentricity
0.00008
Inclination
43.0017°
RAAN
96.0964°
Arg. of periapsis
269.5554°
True anomaly
90.52977°
Mean anomaly
90.5202°
Eccentric anomaly
90.52498°
Mean motion
3.81736 °/min
Orbital period
94.31 mins
BSTAR
0.00012225
Loading maneuver chart data...
Computing Atmospheric mass density...
Loading historical data...
Loading historical data...
Loading historical data...
Loading historical data...
Loading historical data...
Loading historical data...
Loading historical data...

Documentation

Showing up to 5 results
|